Location: Le Petit-Vavre
(46.5081°N, 1.5239°E)
Time: 15:47:37
(UTC+00:00)

Gbstr 26 Del rocket - Pass Details

Date: 03 March 2021
Orbit: 492 x 1264 km, 51.8° (Epoch: 17 April)

Event Time Altitude Azimuth Distance (km) Brightness Sun altitude
Rises 19:53:16 0° 286° (WNW) 2,881 8.0 -23.0°
Reaches altitude 10° 19:55:26 10° 292° (WNW) 2,068 6.8 -23.4°
Maximum altitude 20:00:03 49° 8° (N) 975 4.0 -24.2°
Enters shadow 20:01:04 43° 42° (NE) 1,084 4.0 -24.3°
